Time,TemperatureF,DewpointF,PressureIn,WindDirection,WindDirectionDegrees,WindSpeedMPH,WindSpeedGustMPH,Humidity,HourlyPrecipIn,Conditions,Clouds,dailyrainin,SoftwareType,DateUTC
2013-08-15 00:06:00,81.7,75.0,30.00,ESE,117,0.0,2.0,81,0.00,,,0.00,weatherlink.com 1.10,2013-08-15 04:06:00,
2013-08-15 00:21:00,81.7,76.0,30.00,ESE,115,0.0,1.0,82,0.00,,,0.00,weatherlink.com 1.10,2013-08-15 04:21:00,
2013-08-15 00:36:00,81.1,76.0,29.99,ESE,108,1.0,1.0,83,0.00,,,0.00,weatherlink.com 1.10,2013-08-15 04:36:00,
2013-08-15 00:51:00,80.8,76.0,29.99,ESE,108,0.0,1.0,84,0.00,,,0.00,weatherlink.com 1.10,2013-08-15 04:51:00,
2013-08-15 01:06:00,80.2,76.0,29.99,ENE,77,0.0,1.0,86,0.00,,,0.00,weatherlink.com 1.10,2013-08-15 05:06:00,
2013-08-15 01:21:00,79.7,76.0,29.99,East,98,0.0,1.0,87,0.00,,,0.00,weatherlink.com 1.10,2013-08-15 05:21:00,
2013-08-15 01:36:00,79.0,76.0,29.99,ESE,114,0.0,1.0,89,0.00,,,0.00,weatherlink.com 1.10,2013-08-15 05:36:00,
2013-08-15 01:51:00,78.9,76.0,29.98,ESE,106,0.0,1.0,89,0.00,,,0.00,weatherlink.com 1.10,2013-08-15 05:51:00,
2013-08-15 02:07:00,79.1,76.0,29.98,SE,124,0.0,1.0,89,0.00,,,0.00,weatherlink.com 1.10,2013-08-15 06:07:00,
2013-08-15 02:22:00,79.0,76.0,29.98,ESE,113,0.0,1.0,90,0.00,,,0.00,weatherlink.com 1.10,2013-08-15 06:22:00,
2013-08-15 02:37:00,78.9,76.0,29.97,ESE,106,0.0,1.0,90,0.00,,,0.00,weatherlink.com 1.10,2013-08-15 06:37:00,
2013-08-15 02:52:00,79.0,76.0,29.96,ESE,110,0.0,1.0,91,0.00,,,0.00,weatherlink.com 1.10,2013-08-15 06:52:00,
2013-08-15 03:07:00,79.2,76.0,29.96,SE,126,0.0,1.0,91,0.00,,,0.00,weatherlink.com 1.10,2013-08-15 07:07:00,
2013-08-15 03:22:00,78.8,76.0,29.95,NE,53,0.0,0.0,92,0.00,,,0.00,weatherlink.com 1.10,2013-08-15 07:22:00,
2013-08-15 03:37:00,78.7,77.0,29.95,ESE,117,0.0,1.0,93,0.00,,,0.00,weatherlink.com 1.10,2013-08-15 07:37:00,
2013-08-15 03:52:00,78.7,76.0,29.95,ESE,108,3.0,6.0,92,0.00,,,0.00,weatherlink.com 1.10,2013-08-15 07:52:00,
2013-08-15 04:07:00,77.5,74.0,29.95,WSW,253,0.0,9.0,89,0.17,,,0.17,weatherlink.com 1.10,2013-08-15 08:07:00,
2013-08-15 04:22:00,75.8,74.0,29.96,SW,217,0.0,1.0,93,0.20,,,0.20,weatherlink.com 1.10,2013-08-15 08:22:00,
2013-08-15 04:37:00,75.6,74.0,29.96,East,97,0.0,1.0,95,0.20,,,0.20,weatherlink.com 1.10,2013-08-15 08:37:00,
2013-08-15 04:52:00,76.0,75.0,29.96,East,97,0.0,1.0,95,0.20,,,0.20,weatherlink.com 1.10,2013-08-15 08:52:00,
2013-08-15 05:07:00,75.6,74.0,29.97,ESE,108,1.0,3.0,96,0.03,,,0.20,weatherlink.com 1.10,2013-08-15 09:07:00,
2013-08-15 05:22:00,75.6,74.0,29.97,East,92,3.0,5.0,96,0.00,,,0.20,weatherlink.com 1.10,2013-08-15 09:22:00,
2013-08-15 05:37:00,75.2,74.0,29.97,East,92,0.0,3.0,96,0.00,,,0.20,weatherlink.com 1.10,2013-08-15 09:37:00,
2013-08-15 05:52:00,75.2,74.0,29.96,East,87,0.0,1.0,96,0.00,,,0.20,weatherlink.com 1.10,2013-08-15 09:52:00,
2013-08-15 06:07:00,75.5,75.0,29.96,ESE,113,1.0,1.0,97,0.00,,,0.20,weatherlink.com 1.10,2013-08-15 10:07:00,
2013-08-15 06:22:00,75.8,75.0,29.96,East,95,0.0,1.0,97,0.00,,,0.20,weatherlink.com 1.10,2013-08-15 10:22:00,
2013-08-15 06:37:00,75.9,75.0,29.98,SE,127,1.0,3.0,97,0.00,,,0.20,weatherlink.com 1.10,2013-08-15 10:37:00,
2013-08-15 06:52:00,76.2,75.0,29.99,East,89,5.0,7.0,97,0.00,,,0.20,weatherlink.com 1.10,2013-08-15 10:52:00,
2013-08-15 07:07:00,76.5,76.0,29.98,SE,129,0.0,8.0,97,0.00,,,0.20,weatherlink.com 1.10,2013-08-15 11:07:00,
2013-08-15 07:22:00,76.2,75.0,29.98,SSW,194,1.0,4.0,96,0.00,,,0.20,weatherlink.com 1.10,2013-08-15 11:22:00,
2013-08-15 07:37:00,76.1,75.0,29.98,SSW,198,0.0,1.0,95,0.00,,,0.20,weatherlink.com 1.10,2013-08-15 11:37:00,
2013-08-15 07:52:00,76.0,75.0,29.98,SE,141,0.0,3.0,95,0.00,,,0.20,weatherlink.com 1.10,2013-08-15 11:52:00,
2013-08-15 08:07:00,76.2,75.0,29.98,ESE,120,2.0,2.0,95,0.00,,,0.20,weatherlink.com 1.10,2013-08-15 12:07:00,
2013-08-15 08:22:00,76.5,75.0,29.98,SSE,163,1.0,4.0,95,0.00,,,0.20,weatherlink.com 1.10,2013-08-15 12:22:00,
2013-08-15 08:37:00,77.0,76.0,29.98,ESE,122,2.0,5.0,95,0.00,,,0.20,weatherlink.com 1.10,2013-08-15 12:37:00,
2013-08-15 08:52:00,77.5,76.0,29.98,SE,129,2.0,4.0,94,0.00,,,0.20,weatherlink.com 1.10,2013-08-15 12:52:00,
2013-08-15 09:07:00,78.0,76.0,29.98,East,95,1.0,2.0,94,0.00,,,0.20,weatherlink.com 1.10,2013-08-15 13:07:00,
2013-08-15 09:22:00,78.6,77.0,29.98,SSE,153,0.0,2.0,94,0.00,,,0.20,weatherlink.com 1.10,2013-08-15 13:22:00,
2013-08-15 09:37:00,79.3,77.0,29.98,ESE,111,0.0,3.0,92,0.00,,,0.20,weatherlink.com 1.10,2013-08-15 13:37:00,
2013-08-15 09:52:00,79.9,77.0,29.99,East,96,0.0,3.0,91,0.00,,,0.20,weatherlink.com 1.10,2013-08-15 13:52:00,
2013-08-15 10:07:00,80.9,78.0,29.99,SE,131,0.0,3.0,90,0.00,,,0.20,weatherlink.com 1.10,2013-08-15 14:07:00,
2013-08-15 10:22:00,81.3,78.0,29.99,SE,141,0.0,2.0,89,0.00,,,0.20,weatherlink.com 1.10,2013-08-15 14:22:00,
2013-08-15 10:37:00,81.5,78.0,29.99,East,97,0.0,2.0,89,0.00,,,0.20,weatherlink.com 1.10,2013-08-15 14:37:00,
2013-08-15 10:52:00,81.5,78.0,30.00,SE,128,0.0,3.0,88,0.00,,,0.20,weatherlink.com 1.10,2013-08-15 14:52:00,
2013-08-15 11:07:00,81.5,78.0,30.00,South,169,0.0,1.0,88,0.01,,,0.21,weatherlink.com 1.10,2013-08-15 15:07:00,
2013-08-15 11:22:00,81.4,77.0,30.01,SSE,162,0.0,2.0,87,0.01,,,0.21,weatherlink.com 1.10,2013-08-15 15:22:00,
2013-08-15 11:37:00,81.6,78.0,30.01,ESE,118,0.0,2.0,88,0.02,,,0.22,weatherlink.com 1.10,2013-08-15 15:37:00,
2013-08-15 11:52:00,82.1,78.0,30.01,ESE,108,0.0,1.0,88,0.02,,,0.22,weatherlink.com 1.10,2013-08-15 15:52:00,
2013-08-15 12:07:00,82.1,78.0,30.01,ESE,114,0.0,1.0,88,0.02,,,0.23,weatherlink.com 1.10,2013-08-15 16:07:00,
2013-08-15 12:22:00,82.2,78.0,30.01,SE,144,0.0,2.0,88,0.02,,,0.23,weatherlink.com 1.10,2013-08-15 16:22:00,
2013-08-15 12:37:00,82.2,78.0,30.01,SE,131,0.0,4.0,87,0.01,,,0.23,weatherlink.com 1.10,2013-08-15 16:37:00,
2013-08-15 12:52:00,82.6,78.0,30.01,East,95,0.0,1.0,87,0.00,,,0.23,weatherlink.com 1.10,2013-08-15 16:52:00,
2013-08-15 13:07:00,82.9,79.0,30.01,ESE,102,2.0,4.0,88,0.00,,,0.23,weatherlink.com 1.10,2013-08-15 17:07:00,
2013-08-15 13:22:00,82.8,79.0,30.00,SE,133,0.0,3.0,87,0.00,,,0.23,weatherlink.com 1.10,2013-08-15 17:22:00,
2013-08-15 13:37:00,82.7,79.0,30.00,SE,145,1.0,4.0,87,0.00,,,0.23,weatherlink.com 1.10,2013-08-15 17:37:00,
2013-08-15 13:52:00,83.8,79.0,29.99,ESE,122,1.0,4.0,86,0.00,,,0.23,weatherlink.com 1.10,2013-08-15 17:52:00,
2013-08-15 14:07:00,84.7,78.0,29.98,SE,132,2.0,6.0,81,0.00,,,0.23,weatherlink.com 1.10,2013-08-15 18:07:00,
2013-08-15 14:38:00,86.3,80.0,29.98,East,101,1.0,6.0,80,0.00,,,0.23,weatherlink.com 1.10,2013-08-15 18:38:00,
2013-08-15 14:52:00,86.8,78.0,29.97,SSE,163,2.0,6.0,75,0.00,,,0.23,weatherlink.com 1.10,2013-08-15 18:52:00,
2013-08-15 15:07:00,87.0,79.0,29.97,East,99,2.0,5.0,77,0.00,,,0.23,weatherlink.com 1.10,2013-08-15 19:07:00,
2013-08-15 15:37:00,88.7,79.0,29.95,SSE,150,1.0,6.0,73,0.00,,,0.23,weatherlink.com 1.10,2013-08-15 19:37:00,
2013-08-15 15:52:00,88.4,79.0,29.95,SSE,152,2.0,5.0,74,0.00,,,0.23,weatherlink.com 1.10,2013-08-15 19:52:00,
2013-08-15 16:07:00,86.8,78.0,29.95,ESE,118,1.0,6.0,75,0.00,,,0.23,weatherlink.com 1.10,2013-08-15 20:07:00,
2013-08-15 16:22:00,87.2,78.0,29.95,SSE,148,1.0,4.0,75,0.00,,,0.23,weatherlink.com 1.10,2013-08-15 20:22:00,
2013-08-15 16:37:00,86.7,78.0,29.95,SE,143,2.0,6.0,76,0.00,,,0.23,weatherlink.com 1.10,2013-08-15 20:37:00,
2013-08-15 16:52:00,86.2,78.0,29.95,South,179,1.0,4.0,76,0.00,,,0.23,weatherlink.com 1.10,2013-08-15 20:52:00,
2013-08-15 17:07:00,86.2,78.0,29.95,ESE,111,0.0,5.0,77,0.00,,,0.23,weatherlink.com 1.10,2013-08-15 21:07:00,
2013-08-15 17:22:00,85.8,78.0,29.96,South,170,0.0,4.0,78,0.00,,,0.23,weatherlink.com 1.10,2013-08-15 21:22:00,
2013-08-15 17:37:00,85.7,79.0,29.95,South,169,4.0,4.0,79,0.00,,,0.23,weatherlink.com 1.10,2013-08-15 21:37:00,
2013-08-15 17:52:00,85.4,78.0,29.95,SSE,166,2.0,9.0,78,0.00,,,0.00,weatherlink.com 1.10,2013-08-15 21:52:00,
2013-08-15 18:07:00,85.1,77.0,29.95,South,187,4.0,7.0,76,0.00,,,0.00,weatherlink.com 1.10,2013-08-15 22:07:00,
2013-08-15 18:23:00,84.4,76.0,29.95,SSE,153,1.0,6.0,75,0.00,,,0.00,weatherlink.com 1.10,2013-08-15 22:23:00,
2013-08-15 18:38:00,84.1,77.0,29.95,ESE,114,0.0,3.0,80,0.00,,,0.00,weatherlink.com 1.10,2013-08-15 22:38:00,
2013-08-15 18:53:00,83.8,78.0,29.95,East,83,2.0,5.0,82,0.00,,,0.00,weatherlink.com 1.10,2013-08-15 22:53:00,
2013-08-15 19:08:00,83.5,78.0,29.96,South,180,2.0,4.0,82,0.00,,,0.00,weatherlink.com 1.10,2013-08-15 23:08:00,
2013-08-15 19:23:00,83.0,77.0,29.97,ESE,111,0.0,3.0,83,0.00,,,0.00,weatherlink.com 1.10,2013-08-15 23:23:00,
2013-08-15 19:38:00,82.9,77.0,29.97,ESE,116,0.0,5.0,83,0.00,,,0.00,weatherlink.com 1.10,2013-08-15 23:38:00,
2013-08-15 19:53:00,82.6,77.0,29.98,SSE,148,0.0,3.0,83,0.00,,,0.00,weatherlink.com 1.10,2013-08-15 23:53:00,
2013-08-15 20:08:00,82.7,78.0,29.98,ESE,117,0.0,1.0,84,0.00,,,0.00,weatherlink.com 1.10,2013-08-16 00:08:00,
2013-08-15 20:23:00,82.5,77.0,29.98,SW,215,0.0,1.0,84,0.00,,,0.00,weatherlink.com 1.10,2013-08-16 00:23:00,
2013-08-15 20:38:00,82.6,77.0,29.99,SE,142,1.0,3.0,84,0.00,,,0.00,weatherlink.com 1.10,2013-08-16 00:38:00,
2013-08-15 20:53:00,82.4,78.0,30.00,ESE,114,0.0,1.0,85,0.00,,,0.00,weatherlink.com 1.10,2013-08-16 00:53:00,
2013-08-15 21:08:00,82.5,78.0,30.01,SE,136,0.0,1.0,85,0.00,,,0.00,weatherlink.com 1.10,2013-08-16 01:08:00,
2013-08-15 21:23:00,82.4,78.0,30.02,ESE,115,0.0,1.0,85,0.00,,,0.00,weatherlink.com 1.10,2013-08-16 01:23:00,
2013-08-15 21:38:00,82.4,78.0,30.03,SSE,165,0.0,1.0,85,0.00,,,0.00,weatherlink.com 1.10,2013-08-16 01:38:00,
2013-08-15 21:53:00,82.2,77.0,30.04,SSW,203,0.0,2.0,85,0.00,,,0.00,weatherlink.com 1.10,2013-08-16 01:53:00,
2013-08-15 22:08:00,82.3,78.0,30.04,SE,144,0.0,1.0,86,0.00,,,0.00,weatherlink.com 1.10,2013-08-16 02:08:00,
2013-08-15 22:23:00,82.3,78.0,30.04,SW,218,0.0,1.0,87,0.00,,,0.00,weatherlink.com 1.10,2013-08-16 02:23:00,
2013-08-15 22:53:00,81.6,78.0,30.04,SE,136,0.0,1.0,89,0.00,,,0.00,weatherlink.com 1.10,2013-08-16 02:53:00,
2013-08-15 23:08:00,81.5,78.0,30.04,ESE,122,0.0,1.0,89,0.00,,,0.00,weatherlink.com 1.10,2013-08-16 03:08:00,
2013-08-15 23:23:00,81.2,78.0,30.04,ESE,115,0.0,1.0,89,0.00,,,0.00,weatherlink.com 1.10,2013-08-16 03:23:00,
2013-08-15 23:38:00,81.1,78.0,30.04,ESE,104,0.0,1.0,90,0.01,,,0.01,weatherlink.com 1.10,2013-08-16 03:38:00,
2013-08-15 23:53:00,80.7,78.0,30.03,East,88,0.0,1.0,91,0.01,,,0.01,weatherlink.com 1.10,2013-08-16 03:53:00,